Lordsburg, NM

4:03 AM MDT on October 20, 2017 (GMT -0600)
Lordsburg

Weather History for KLSB - November, 2012

Change the Weather History Date:

Thursday, November 8, 2012

  Actual Average Record
Temperature  
Mean Temperature 62 °F -  
Max Temperature 77 °F 69 °F 71 °F (2013)
Min Temperature 48 °F 34 °F 33 °F (2014)
Degree Days  
Heating Degree Days 2    
Growing Degree Days 12 (Base 50)    
Moisture  
Dew Point 27 °F    
Average Humidity 27    
Maximum Humidity 48    
Minimum Humidity 12    
Precipitation  
Precipitation 0.00 in - - ()
Sea Level Pressure  
Sea Level Pressure 30.04 in    
Wind  
Wind Speed 5 mph ()    
Max Wind Speed 15 mph    
Max Gust Speed 22 mph    
Visibility 10.0 miles    
Events      
Averages and records for this station are not official NWS values.
T = Trace of Precipitation, MM = Missing Value Source: Averaged Metar Reports

Daily Weather History Graph

Daily Weather History Graph

Search for Another Location

Airport or City:

Trip Planner

Search our weather history database for the weather conditions in past years. The results will help you decide how hot, cold, wet, or windy it might be!

Date:

Astronomy

Nov. 08, 2012 Rise Set
Actual Time 6:41 AM MST 5:14 PM MST
Civil Twilight 6:15 AM MST 5:41 PM MST
Nautical Twilight 5:45 AM MST 6:11 PM MST
Astronomical Twilight 5:15 AM MST 6:40 PM MST
Moon 12:55 AM MST (11/8) 1:44 PM MST (11/8)
Length of Visible Light 11h 25m
Length of Day
10h 33m
Waning Crescent, 32% of the Moon is Illuminated
Nov 8
Waning Crescent
Nov 13
New
Nov 20
First Quarter
Nov 28
Full
Dec 6
Last Quarter

Hourly Weather History & Observations

Time (MST) Temp. Dew Point Humidity Pressure Visibility Wind Dir Wind Speed Gust Speed Precip Events Conditions
12:15 AM 51.8 °F 19.4 °F 28% 30.07 in 10.0 mi SE 5.8 mph - N/A   Clear
12:35 AM 51.8 °F 21.2 °F 30% 30.07 in 10.0 mi Calm Calm - N/A   Clear
12:55 AM 50.0 °F 19.4 °F 30% 30.07 in 10.0 mi Calm Calm - N/A   Clear
1:15 AM 50.0 °F 19.4 °F 30% 30.07 in 10.0 mi Calm Calm - N/A   Clear
1:35 AM 50.0 °F 19.4 °F 30% 30.07 in 10.0 mi SE 3.5 mph - N/A   Clear
1:55 AM 50.0 °F 19.4 °F 30% 30.06 in 10.0 mi Calm Calm - N/A   Clear
2:15 AM 48.2 °F 19.4 °F 32% 30.06 in 10.0 mi SSE 4.6 mph - N/A   Clear
2:35 AM 50.0 °F 19.4 °F 30% 30.06 in 10.0 mi South 6.9 mph - N/A   Clear
2:55 AM 48.2 °F 19.4 °F 32% 30.06 in 10.0 mi Calm Calm - N/A   Clear
3:15 AM 48.2 °F 17.6 °F 30% 30.06 in 10.0 mi Calm Calm - N/A   Clear
3:35 AM 50.0 °F 19.4 °F 30% 30.04 in 10.0 mi Calm Calm - N/A   Clear
3:55 AM 48.2 °F 19.4 °F 32% 30.04 in 10.0 mi South 3.5 mph - N/A   Clear
4:15 AM 50.0 °F 21.2 °F 32% 30.04 in 10.0 mi South 6.9 mph - N/A   Clear
4:35 AM 53.6 °F 21.2 °F 28% 30.04 in 10.0 mi South 6.9 mph - N/A   Clear
4:55 AM 51.8 °F 21.2 °F 30% 30.04 in 10.0 mi South 6.9 mph - N/A   Clear
5:15 AM 51.8 °F 21.2 °F 30% 30.04 in 10.0 mi South 3.5 mph - N/A   Clear
5:55 AM 48.2 °F 19.4 °F 32% 30.06 in 10.0 mi Calm Calm - N/A   Clear
6:15 AM 50.0 °F 21.2 °F 32% 30.06 in 10.0 mi Calm Calm - N/A   Clear
6:35 AM 50.0 °F 21.2 °F 32% 30.06 in 10.0 mi South 5.8 mph - N/A   Clear
6:55 AM 51.8 °F 21.2 °F 30% 30.06 in 10.0 mi South 4.6 mph - N/A   Clear
7:15 AM 51.8 °F 23.0 °F 33% 30.06 in 10.0 mi South 5.8 mph - N/A   Clear
7:35 AM 53.6 °F 23.0 °F 30% 30.07 in 10.0 mi South 3.5 mph - N/A   Clear
7:55 AM 57.2 °F 24.8 °F 29% 30.07 in 10.0 mi SE 4.6 mph - N/A   Clear
8:15 AM 59.0 °F 24.8 °F 27% 30.07 in 10.0 mi SE 6.9 mph - N/A   Clear
8:35 AM 60.8 °F 26.6 °F 27% 30.07 in 10.0 mi SE 9.2 mph - N/A   Clear
8:55 AM 64.4 °F 28.4 °F 26% 30.08 in 10.0 mi SSE 6.9 mph - N/A   Clear
9:15 AM 68.0 °F 28.4 °F 23% 30.08 in 10.0 mi SSE 6.9 mph - N/A   Clear
9:35 AM 68.0 °F 28.4 °F 23% 30.08 in 10.0 mi Calm Calm - N/A   Clear
9:55 AM 68.0 °F 30.2 °F 24% 30.08 in 10.0 mi Calm Calm - N/A   Clear
10:15 AM 71.6 °F 30.2 °F 22% 30.08 in 10.0 mi Calm Calm - N/A   Clear
10:35 AM 71.6 °F 30.2 °F 22% 30.07 in 10.0 mi North 5.8 mph - N/A   Clear
10:55 AM 71.6 °F 30.2 °F 22% 30.06 in 10.0 mi Calm Calm - N/A   Clear
11:15 AM 77.0 °F 32.0 °F 19% 30.06 in 10.0 mi WSW 8.1 mph - N/A   Clear
11:35 AM 77.0 °F 32.0 °F 19% 30.04 in 10.0 mi West 8.1 mph - N/A   Clear
11:55 AM 77.0 °F 32.0 °F 19% 30.04 in 10.0 mi WNW 8.1 mph - N/A   Clear
12:15 PM 77.0 °F 32.0 °F 19% 30.03 in 10.0 mi WNW 8.1 mph - N/A   Clear
12:35 PM 77.0 °F 30.2 °F 18% 30.02 in 10.0 mi WNW 10.4 mph - N/A   Clear
12:55 PM 77.0 °F 30.2 °F 18% 30.01 in 10.0 mi West 8.1 mph 17.3 mph N/A   Clear
1:15 PM 75.2 °F 30.2 °F 19% 30.01 in 10.0 mi West 10.4 mph - N/A   Clear
1:35 PM 73.4 °F 30.2 °F 20% 30.01 in 10.0 mi WNW 10.4 mph - N/A   Clear
1:55 PM 73.4 °F 30.2 °F 20% 30.00 in 10.0 mi West 12.7 mph - N/A   Clear
2:15 PM 75.2 °F 28.4 °F 18% 30.00 in 10.0 mi West 15.0 mph - N/A   Clear
2:35 PM 77.0 °F 26.6 °F 16% 30.00 in 10.0 mi West 11.5 mph - N/A   Clear
2:55 PM 77.0 °F 21.2 °F 12% 30.00 in 10.0 mi West 13.8 mph - N/A   Clear
3:15 PM 75.2 °F 24.8 °F 15% 30.00 in 10.0 mi WNW 12.7 mph 21.9 mph N/A   Clear
3:35 PM 77.0 °F 24.8 °F 14% 29.99 in 10.0 mi WNW 9.2 mph - N/A   Clear
3:55 PM 77.0 °F 24.8 °F 14% 29.99 in 10.0 mi WNW 6.9 mph - N/A   Clear
4:15 PM 75.2 °F 24.8 °F 15% 29.99 in 10.0 mi West 5.8 mph - N/A   Clear
4:35 PM 75.2 °F 24.8 °F 15% 29.99 in 10.0 mi WNW 5.8 mph - N/A   Clear
4:55 PM 71.6 °F 23.0 °F 16% 29.98 in 10.0 mi WNW 5.8 mph - N/A   Clear
5:15 PM 69.8 °F 23.0 °F 17% 29.99 in 10.0 mi NW 3.5 mph - N/A   Clear
5:35 PM 66.2 °F 23.0 °F 19% 29.99 in 10.0 mi Calm Calm - N/A   Scattered Clouds
5:55 PM 64.4 °F 23.0 °F 21% 29.99 in 10.0 mi Calm Calm - N/A   Mostly Cloudy
6:15 PM 60.8 °F 21.2 °F 22% 29.99 in 10.0 mi Calm Calm - N/A   Scattered Clouds
6:35 PM 62.6 °F 21.2 °F 20% 29.99 in 10.0 mi SSW 4.6 mph - N/A   Scattered Clouds
6:55 PM 59.0 °F 21.2 °F 23% 30.00 in 10.0 mi SSW 5.8 mph - N/A   Clear
7:15 PM 60.8 °F 21.2 °F 22% 30.01 in 10.0 mi WSW 10.4 mph - N/A   Clear
7:35 PM 68.0 °F 32.0 °F 26% 30.01 in 10.0 mi WSW 13.8 mph 17.3 mph N/A   Clear
7:55 PM 68.0 °F 32.0 °F 26% 30.02 in 10.0 mi West 11.5 mph - N/A   Scattered Clouds
8:15 PM 66.2 °F 32.0 °F 28% 30.02 in 10.0 mi WSW 10.4 mph - N/A   Scattered Clouds
8:35 PM 66.2 °F 35.6 °F 32% 30.03 in 10.0 mi WSW 11.5 mph - N/A   Clear
8:55 PM 66.2 °F 35.6 °F 32% 30.03 in 10.0 mi SW 9.2 mph - N/A   Clear
9:15 PM 64.4 °F 35.6 °F 34% 30.03 in 10.0 mi SW 10.4 mph - N/A   Clear
9:35 PM 62.6 °F 35.6 °F 37% 30.04 in 10.0 mi SW 10.4 mph - N/A   Scattered Clouds
9:55 PM 64.4 °F 37.4 °F 37% 30.04 in 10.0 mi SW 9.2 mph - N/A   Mostly Cloudy
10:15 PM 64.4 °F 37.4 °F 37% 30.04 in 10.0 mi SW 11.5 mph - N/A   Overcast
10:35 PM 64.4 °F 39.2 °F 40% 30.06 in 10.0 mi SW 9.2 mph - N/A   Overcast
10:55 PM 62.6 °F 41.0 °F 45% 30.06 in 10.0 mi West 5.8 mph - N/A   Overcast
11:15 PM 62.6 °F 42.8 °F 48% 30.05 in 10.0 mi West 4.6 mph - N/A   Overcast
11:35 PM 62.6 °F 41.0 °F 45% 30.05 in 10.0 mi NNW 4.6 mph - N/A   Overcast
11:55 PM 62.6 °F 42.8 °F 48% 30.05 in 10.0 mi NNW 3.5 mph - N/A   Overcast